COSMOS 2491 DEB, 57552

Orbit data source: Space-Track

COSMOS 2491 DEB, 57552 is space debris in LEO originally from a launch on Wed, 25 Dec 2013 UTC launched from the Plesetsk Missile And Space Complex (PKMTR). Debris objects in space refer to the collection of defunct objects orbiting the Earth. Examples of debris include non-operational satellites, rocket bodies, and fragments generated from explosions, collisions, or faulty payload assembly.

Loading next visibility...
Identifier
57552, 2013-076AP
Orbit
LEO
Country
Flag of CISCIS
Related business
Manufacturer
TsNIIKhM
Mission
Spacecraft
Bus & Motor
Unknown
Mass
Unknown
Launch date (UTC)
2013-12-25 (12 years ago)
Launch vehicle
Unknown
Launch site
Plesetsk Missile And Space Complex (PKMTR)
Object type
Payload
Rocket body
Debris
Shape & HBR
Unknown shape, 0.1 m
Radar Cross Section
Small (<0.1 m²)

Expand to show TLE details & history
Last TLE update: 8 hours ago

TLE from 8 hours ago
0 COSMOS 2491 DEB
1 57552U 13076AP  26129.69777087  .00002633  00000-0  11862-1 0  9995
2 57552  82.4476 123.6761 0145953 183.2859 176.7295 12.74741207139584
Epoch: 2026-05-09T16:44Z
TLE epoch observation values (Epoch: 2026-05-09T16:44:47.403Z)
Latitude
-0°
Longitude
4.96711°
Altitude
1,478.252 km
Speed
7.072 km/s
True Right ascension
08h 14m 42s
True Declination
0° 00' 00"
Sunlit
Object was in daylight at epoch
Visualization orbit readout
Latitude
Unknown
Longitude
Unknown
Altitude
Unknown
Speed
Unknown
Apparent Right ascension
Unknown
Apparent Declination
Unknown
Sunlit
N/A
Visualization observer readout
Local Sidereal Time
08:36:32
Azimuth
Unknown
Elevation
Unknown
Doppler factor
Unknown
Orbital elements
Apogee altitude
1,472.934 km
Perigee altitude
1,247.053 km
Semi-major axis
7,738.131 km
Eccentricity
0.0146
Inclination
82.4476°
RAAN
123.6761°
Arg. of periapsis
183.2859°
True anomaly
176.82321°
Mean anomaly
176.7295°
Eccentric anomaly
176.77652°
Mean motion
3.18852 °/min
Orbital period
112.91 mins
BSTAR
0.011862
Loading maneuver chart data...
Computing Atmospheric mass density...
Loading historical data...
Loading historical data...
Loading historical data...
Loading historical data...
Loading historical data...
Loading historical data...
Loading historical data...

Documentation

Showing up to 5 results
|